STARLINK-2482 (48139 NORAD) Tracking and Keplerian Element Data

This shows tracking and keplerian element data for the satellite.

Feedback or suggestion? Click here.




ElementValue
Catalog48139
NameSTARLINK-2482
Epoch Orbit180
Epoch Day136.75001157
Epoch Year2021
RAAN146.2158
Inclination53.0471
Eccentricity0.0002713
Argument of Perigee25.8278
Mean Anonmoly17.4492
Mean Motion15.73232832
Decay Rate-0.00078034
L11 48139U 21027AZ 21136.75001157 -.00078034 00000-0 -55571-3 0 9996
L22 48139 53.0471 146.2158 0002713 25.8278 17.4492 15.73232832 1801

Live tracking and technical data element details for STARLINK-2482 (NORAD 48139). STARLINK-2482 can be tracked NOW for your location showing map with azimuth and elevation plus other details from your city location.

Track the satellite on the map from your city or location and see movement details for azimuth, elevation, latitude, longitude, range, height, and movement on the map or in text.







IsCatalogInMostPopularTable: catalog: 48139, numindb: 14
Update: records affected: 1



GetName: 48139 STARLINK-2482

Hit Count: updated at: Mon, 17 May 2021 15:39:20 GMT